Retour au catalogue

NOAA 16 DEB

ActifPO
NORAD 42402·DEBRIS·🇺🇸 United States

Lancé Sep 21, 2000 depuis Vandenberg Space Force Base

Loading…

Prochains Passages (prochaines 24 heures)

TLE

FraisSource: Space-Track

Époque: Sep 14, 2026, 09:57 UTC

1 42402U 00055SW  26257.41519551  .00002626  00000-0  75468-3 0  9994
2 42402  99.0192 125.5935 0026881 224.4029 135.5006 14.45554425549256

Suivez NOAA 16 DEB en temps réel avec AllMySat

Download on the App Store